Regional Weather Roundup
Issued by NWS State College, PA

Home | Current Version | Previous Version | Graphics & Text | Print | Product List | Glossary Off
Versions: 1 2 3 4 5 6 7 8 9 10 11 12 13 14 15 16 17 18 19 20 21 22 23 24 25 26 27 28 29 30 31 32 33 34 35 36 37 38 39 40 41 42 43 44 45 46 47 48 49 50

000
ASUS41 KCTP 240903
RWRCTP

REGIONAL WEATHER ROUNDUP
NATIONAL WEATHER SERVICE STATE COLLEGE PA
500 AM EDT WED AUG 24 2016

Note: "fair" indicates few or no clouds below 12,000 feet with no
significant weather and/or obstructions to visibility.

* = STATION THAT DOES NOT REPORT PRECIPITATION /E.G. RAIN...SNOW...ETC/
    THUNDER OR FOG.

PAZ002>004-007>009-013>016-020>023-029>032-241000-
WESTERN PENNSYLVANIA

CITY           SKY/WX    TMP DP  RH WIND       PRES   REMARKS
ERIE           CLEAR     64  58  80 S9        30.21S
MEADVILLE      CLEAR     59  55  87 CALM      30.25S
FRANKLIN*      CLEAR     55  52  88 CALM      30.27S
NEW CASTLE     FAIR      56  55  97 CALM      30.25S FOG
BEAVER COUNTY  NOT AVBL
BUTLER*        NOT AVBL
PITTSBURGH INT CLEAR     60  57  89 CALM      30.24S
PITTSBURGH     CLEAR     62  59  90 SE5       30.24S FOG
INDIANA*       MOCLDY    59  57  94 CALM      30.29S
LATROBE        CLEAR     59  59 100 CALM      30.26S
WASHINGTON CO*   N/A     55  52  88 CALM      30.25S VSB 3/4
$$

PAZ004>006-010>012-017>019-024>028-033>037-041-042-045-046-049>053-241000-
CENTRAL PENNSYLVANIA

CITY           SKY/WX    TMP DP  RH WIND       PRES   REMARKS
BRADFORD       CLEAR     51  51 100 SE3       30.29S
DUBOIS         CLEAR     57  53  86 E5        30.28S
CLEARFIELD     CLEAR     54  54 100 N5        30.30R
JOHNSTOWN      CLEAR     62  59  90 S3        30.30S
ALTOONA        CLEAR     57  57 100 CALM      30.30R
STATE COLLEGE  PTCLDY    58  56  94 CALM      30.29R
WILLIAMSPORT   CLEAR     59  56  89 CALM      30.27R
SELINSGROVE    PTCLDY    56  56 100 CALM      30.28S FOG
FT INDIANTOWN  CLEAR     58  57  98 VRB1      30.28S
CAPITAL CITY   CLEAR     63  59  87 CALM      30.27S
HARRISBURG     CLEAR     64  62  93 E3        30.27R
YORK           CLEAR     56  54  93 CALM      30.28R
$$

PAZ038>040-043-044-047-048-054-055-060>062-067>071-241000-
EASTERN PENNSYLVANIA

CITY           SKY/WX    TMP DP  RH WIND       PRES   REMARKS
SCRANTON       CLEAR     59  55  87 E6        30.28S
MOUNT POCONO   CLEAR     52  51  97 NW5       30.31F
ALLENTOWN      CLEAR     58  55  90 CALM      30.28S
QUAKERTOWN*    SUNNY     55  55 100 CALM      30.29S
READING        CLEAR     62  58  86 CALM      30.27S
LANCASTER      CLEAR     61  61 100 CALM      30.28S
COATESVILLE    SUNNY     61  59  94 CALM      30.30S
POTTSTOWN      CLEAR     58  56  93 CALM      30.30R
BLUE BELL      CLEAR     54  54 100 CALM      30.28R
DOYLESTOWN     CLEAR     62  59  90 CALM      30.28R
WILLOW GROVE   NOT AVBL
NORTH PHILA    CLEAR     63  59  87 CALM      30.29S
PHILADELPHIA   CLEAR     68  60  75 SW5       30.29R
$$




USA.gov is the U.S. government's official web portal to all federal, state and local government web resources and services.